Change the Weather History Date:

Sunday, September 22, 2013

  Actual Average Record
Temperature  
Mean Temperature 63 °F -  
Max Temperature 79 °F 82 °F 91 °F (2007)
Min Temperature 48 °F 45 °F 30 °F (2000)
Degree Days  
Heating Degree Days 2    
Growing Degree Days 13 (Base 50)    
Moisture  
Dew Point 45 °F    
Average Humidity 59    
Maximum Humidity 83    
Minimum Humidity 24    
Precipitation  
Precipitation 0.00 in - - ()
Sea Level Pressure  
Sea Level Pressure 29.49 in    
Wind  
Wind Speed 6 mph (WSW)    
Max Wind Speed 12 mph    
Max Gust Speed -    
Visibility 10 miles    
Events      
Averages and records for this station are not official NWS values.
T = Trace of Precipitation, MM = Missing Value Source: NWS Daily Summary

Daily Weather History Graph

Daily Weather History Graph

Search for Another Location

Airport or City:

Trip Planner

Search our weather history database for the weather conditions in past years. The results will help you decide how hot, cold, wet, or windy it might be!

Date:

Astronomy

Sep. 22, 2013 Rise Set
Actual Time 6:44 AM MDT 6:54 PM MDT
Civil Twilight 6:14 AM MDT 7:24 PM MDT
Nautical Twilight 5:38 AM MDT 7:59 PM MDT
Astronomical Twilight 5:02 AM MDT 8:35 PM MDT
Moon 8:31 PM MDT (9/22) 10:20 AM MDT (9/22)
Length of Visible Light 13h 09m
Length of Day
12h 09m
Waning Gibbous, 88% of the Moon is Illuminated
Sep 22
Waning Gibbous
Sep 26
Last Quarter
Oct 4
New
Oct 11
First Quarter
Oct 18
Full

Hourly Weather History & Observations

Time (MDT) Temp. Dew Point Humidity Pressure Visibility Wind Dir Wind Speed Gust Speed Precip Events Conditions
12:51 AM 51.1 °F 45.0 °F 80% 29.57 in 10.0 mi SE 8.1 mph - N/A   Clear
1:51 AM 48.0 °F 43.0 °F 83% 29.56 in 10.0 mi SE 5.8 mph - N/A   Clear
2:51 AM 48.9 °F 44.1 °F 83% 29.53 in 10.0 mi East 3.5 mph - N/A   Clear
3:51 AM 50.0 °F 45.0 °F 83% 29.51 in 10.0 mi East 4.6 mph - N/A   Clear
4:51 AM 48.9 °F 44.1 °F 83% 29.50 in 10.0 mi ESE 10.4 mph - N/A   Clear
5:51 AM 48.9 °F 44.1 °F 83% 29.50 in 10.0 mi ESE 8.1 mph - N/A   Clear
6:51 AM 48.0 °F 43.0 °F 83% 29.52 in 10.0 mi East 5.8 mph - N/A   Clear
7:51 AM 48.9 °F 44.1 °F 83% 29.53 in 10.0 mi Calm Calm - N/A   Clear
8:51 AM 55.9 °F 48.0 °F 75% 29.52 in 10.0 mi SE 5.8 mph - N/A   Clear
9:51 AM 68.0 °F 43.0 °F 40% 29.49 in 10.0 mi South 4.6 mph - N/A   Clear
10:51 AM 73.0 °F 37.9 °F 28% 29.49 in 10.0 mi West 10.4 mph - N/A   Clear
11:51 AM 75.9 °F 37.0 °F 24% 29.48 in 10.0 mi West 11.5 mph - N/A   Clear
12:51 PM 75.9 °F 37.9 °F 25% 29.47 in 10.0 mi WSW 8.1 mph - N/A   Clear
1:51 PM 78.1 °F 42.1 °F 28% 29.47 in 10.0 mi WSW 4.6 mph - N/A   Clear
2:51 PM 75.9 °F 44.1 °F 32% 29.46 in 10.0 mi WNW 8.1 mph - N/A   Clear
3:51 PM 77.0 °F 44.1 °F 31% 29.45 in 10.0 mi WNW 8.1 mph - N/A   Clear
4:51 PM 73.0 °F 46.0 °F 38% 29.47 in 10.0 mi WNW 6.9 mph - N/A   Clear
5:51 PM 72.0 °F 48.9 °F 44% 29.48 in 10.0 mi NW 5.8 mph - N/A   Clear
6:51 PM 66.9 °F 48.9 °F 52% 29.49 in 10.0 mi NW 5.8 mph - N/A   Clear
7:51 PM 63.0 °F 48.9 °F 60% 29.48 in 10.0 mi NW 5.8 mph - N/A   Clear
8:51 PM 62.1 °F 48.9 °F 62% 29.48 in 10.0 mi NNW 4.6 mph - N/A   Clear
9:51 PM 59.0 °F 48.9 °F 69% 29.46 in 10.0 mi Calm Calm - N/A   Clear
10:51 PM 57.0 °F 48.9 °F 74% 29.47 in 10.0 mi West 5.8 mph - N/A   Clear
11:51 PM 55.9 °F 48.0 °F 75% 29.48 in 10.0 mi SSE 3.5 mph - N/A   Clear